Starlink 2535

operational
NORAD ID: 48295 Int'l Des: 2021-036 Owner: SPXS Country: US Constellation: starlink
LEOCIRCULARSTARLINK_TYPE

关于 Starlink 2535

正在加载描述...

实时位置

正在加载3D地球...

即将过境

高度历史

Altitude vs Time

uPlot chart will show altitude changes over time

两行轨道根数

1 48295U 21036V 25351.01873250 .00002280 00000-0 17190-3 0 9995
2 48295 53.0554 92.7424 0001213 88.3616 271.7512 15.06400301255859
Epoch: Dec 17, 2025 • Age: 20 hours

当前状态

高度 548.6 km
速度 7.59 km/s
星下点 31.80°N, 147.84°W
发射日期 Apr 29, 2021
运行时间 4.6 years
类型 internet

技术详情

分类 Payload
质量 260.00 kg
干质量 248.00 kg
总质量 260.00 kg
长度 0.20 m
直径 2.80 m
跨度 9.00 m
形状 Box + pan
制造商 SPXS
平台类型 Starlink
阶段状态 In Orbit
所有者/国家 SPXS/US

大型星座

Loading constellations...